Back to catalog

STARLINK-32905

AliveCommunicationsVLEO
NORAD 62923·PAYLOAD·🇺🇸 United States

Launched Feb 8, 2025 from Cape Canaveral Space Force Station

Loading…

Next Passes (next 24 hours)

TLE

FreshSource: CelesTrak SupGP

Epoch: Sep 14, 2026, 15:16 UTC

1 62923C 25027S   26257.63659722  .00038668  00000+0  14006-2 0  2570
2 62923  43.0012 142.0062 0001595 264.0082 212.1976 15.27557898    17

Track STARLINK-32905 in real time with AllMySat

Download on the App Store